map of NTY home
Great Circle Mapper logo
NTY - Airport
Location
City:  Pilansberg, North West, South Africa
Near (Alt.):Sun City
Name:Pilansberg International Airport
ICAO / IATA:FAPN / NTY

Details
Type:Airport (Aerodrome, Airfield)
Use:Public/Civil, International (customs port of entry)
Latitude:2520'02"S (-25.333821)
Longitude:2710'24"E (27.173358)
Datum:WGS 1984
Elevation:3412 ft (1040 m)
Variation:17.03W (WMM2015 magnetic declination)
-0.08 annual change
Runways:1
Longest:9022 × 98 ft (2750 × 30 m), paved

Time
Time Zone:UTC+2
Local Time:

Weather
METAR:FAPN 011500Z AUTO 27007KT //// // ////// 29/M00 Q1015
TAF:FAPN 010900Z 0110/0118 32011KT CAVOK
FM011800 26008KT CAVOK TX30/0113ZTN16/0118Z

Related Locations
Nearby:
Farthest:HNM: 12062 mi / 19412 km
Hana, Maui, HI, US

Find:

   beyond  
but within

Other Information
Maps:
NOTAMs:
Links:
Sources:

  
flag of South Africa
flag of North West
  

Sectional Chart

Flight Planning
at skyvector.com

Satellite Image

Google Maps Satellite view

 

Copyright © 2004-2015 Karl L. Swartz. All rights reserved.
The Great Circle Mapper name and logo are trademarks of the Great Circle Mapper.
All other trademarks mentioned herein belong to their respective owners.
Please see credits for attibutions and further copyright information.

  Follow gcmap on Facebook Follow gcmap on Twitter Follow gcmap on Google+

hCard Microformat

Geo Microformat